TimeMST,TemperatureF,Dew PointF,Humidity,Sea Level PressureIn,VisibilityMPH,Wind Direction,Wind SpeedMPH,Gust SpeedMPH,PrecipitationIn,Events,Conditions,WindDirDegrees,DateUTC
12:57 AM,44.1,43.0,96,29.85,10.0,Calm,Calm,-,0.07,,Overcast,0,2012-10-12 07:57:00
1:57 AM,44.1,41.0,89,29.83,10.0,SSW,8.1,-,0.01,Rain,Light Rain,210,2012-10-12 08:57:00
2:57 AM,42.1,39.9,92,29.83,8.0,Calm,Calm,-,0.04,Rain,Light Rain,0,2012-10-12 09:57:00
3:35 AM,42.8,39.2,87,30.05,8.0,SSW,5.8,-,0.03,Rain,Light Rain,210,2012-10-12 10:35:00
3:57 AM,42.1,41.0,96,29.85,7.0,SW,9.2,-,0.07,Rain,Light Rain,220,2012-10-12 10:57:00
4:11 AM,42.8,39.2,87,30.05,5.0,SW,5.8,-,0.03,Rain,Light Rain,230,2012-10-12 11:11:00
4:57 AM,39.0,37.0,93,29.90,4.0,WSW,5.8,-,0.08,Rain,Rain,250,2012-10-12 11:57:00
5:12 AM,39.2,37.4,93,30.06,7.0,West,4.6,-,0.02,Rain,Light Rain,270,2012-10-12 12:12:00
5:37 AM,39.2,37.4,93,30.06,5.0,WSW,8.1,-,0.06,Rain,Rain,250,2012-10-12 12:37:00
5:57 AM,39.0,37.0,93,29.91,10.0,WSW,4.6,-,0.06,,Overcast,250,2012-10-12 12:57:00
6:05 AM,39.2,37.4,93,30.06,10.0,Calm,Calm,-,N/A,,Overcast,0,2012-10-12 13:05:00
6:35 AM,37.4,35.6,93,30.06,5.0,SSW,16.1,28.8,0.02,Rain,Rain,200,2012-10-12 13:35:00
6:57 AM,35.1,33.1,92,29.94,2.5,WSW,8.1,18.4,0.09,Snow,Light Snow,240,2012-10-12 13:57:00
7:18 AM,35.6,33.8,93,30.08,8.0,Variable,3.5,-,0.02,Rain,Light Freezing Rain,0,2012-10-12 14:18:00
7:33 AM,35.6,33.8,93,30.09,4.0,SSW,9.2,-,0.03,Rain,Light Rain,210,2012-10-12 14:33:00
7:57 AM,36.0,35.1,97,29.96,4.0,SSW,4.6,-,0.07,Rain,Heavy Rain,200,2012-10-12 14:57:00
8:05 AM,35.6,33.8,93,30.09,5.0,SSW,6.9,-,0.02,Rain,Light Rain,200,2012-10-12 15:05:00
11:45 AM,42.8,37.4,81,30.13,9.0,SSW,19.6,27.6,N/A,,Mostly Cloudy,210,2012-10-12 18:45:00
11:57 AM,42.1,37.0,82,30.00,6.0,SW,20.7,28.8,0.00,Rain,Light Rain,220,2012-10-12 18:57:00
12:57 PM,43.0,37.0,80,30.00,10.0,SSW,13.8,-,0.01,,Overcast,200,2012-10-12 19:57:00
1:34 PM,44.6,37.4,76,30.14,10.0,SSW,13.8,-,0.00,,Overcast,210,2012-10-12 20:34:00
1:42 PM,42.8,35.6,76,30.14,10.0,WSW,9.2,19.6,0.00,Rain,Light Rain,250,2012-10-12 20:42:00
1:57 PM,39.9,34.0,79,30.03,7.0,West,8.1,18.4,0.00,Rain,Light Rain,260,2012-10-12 20:57:00
2:16 PM,39.2,35.6,87,30.15,1.8,SW,10.4,-,0.04,Rain,Rain,230,2012-10-12 21:16:00
2:18 PM,39.2,37.4,93,30.15,10.0,SW,8.1,17.3,0.05,Rain,Rain,230,2012-10-12 21:18:00
2:57 PM,44.1,37.9,79,30.01,10.0,SSW,16.1,24.2,0.05,,Scattered Clouds,210,2012-10-12 21:57:00
3:20 PM,44.6,37.4,76,30.14,10.0,SW,15.0,-,N/A,,Mostly Cloudy,220,2012-10-12 22:20:00
3:53 PM,42.8,35.6,76,30.15,10.0,SSW,12.7,-,N/A,,Mostly Cloudy,210,2012-10-12 22:53:00
3:57 PM,42.1,37.0,82,30.03,10.0,SSW,12.7,-,N/A,,Mostly Cloudy,210,2012-10-12 22:57:00
4:57 PM,42.1,36.0,79,30.04,10.0,SSW,10.4,-,N/A,,Partly Cloudy,210,2012-10-12 23:57:00
5:57 PM,41.0,35.1,79,30.06,10.0,WSW,8.1,-,N/A,,Scattered Clouds,250,2012-10-13 00:57:00
6:57 PM,39.0,35.1,86,30.09,10.0,WSW,6.9,-,N/A,,Clear,240,2012-10-13 01:57:00
7:57 PM,39.0,35.1,86,30.10,10.0,West,8.1,-,N/A,,Mostly Cloudy,260,2012-10-13 02:57:00
9:57 PM,37.0,32.0,82,30.12,10.0,West,3.5,-,N/A,,Clear,260,2012-10-13 04:57:00
10:57 PM,36.0,30.9,82,30.10,10.0,Calm,Calm,-,N/A,,Clear,0,2012-10-13 05:57:00
11:57 PM,33.1,30.9,92,30.12,10.0,West,3.5,-,N/A,,Clear,270,2012-10-13 06:57:00